星链-31277 (STARLINK-31277 )

导读 | 星芒AI

STARLINK-31277 是 SpaceX Starlink 卫星互联网项目中的一颗低轨卫星,属于第二代 Starlink 卫星星座的一部分。该卫星由 SpaceX 发射并部署在近地轨道,旨在为全球用户提供高速、低延迟的宽带互联网服务。Starlink 项目通过大规模部署卫星,提升偏远和网络覆盖不足地区的网络接入能力。STARLINK-31277 的运行有助于增强 Starlink 网络的稳定性和覆盖范围,是实现全球互联网连接目标的重要组成部分。

基本信息
目录编号:
59651
目录名称:
STARLINK-31277
国际标识:
2024-082W
轨道中心:
EARTH
卫星名称:
星链-31277
卫星全名:
星链-31277 (STARLINK-31277 )
卫星状态:
在轨 (已飞行549 天)
发射日期:
2024-05-03 UTC
国别 :
美国 (US)
星等 :
--
轨道信息
数据来源 国际轨道数据
星历时间: 2025-11-02T14:29:47+0800
20小时前
查看轨道信息
半长轴: 6861.209km
偏心率: 0.0001431
轨道倾角: 43.002°
近地点辐角 252.092°
升交点赤经 139.506°
平近点角 107.978°
近地点: 482.092km
远地点: 484.056km
周期: 94.267分钟
每日圈数: 15.275724
详细信息
固有亮度:
5
最大亮度:
1.5
卫星平台:
Starlink v2.0 mini
覆盖范围:
全球
运营商:
太空探索技术公司
运营商所在国:
美国
制造商(研发单位):
太空探索技术公司
制造商所在国:
美国
使用方式:
暂无
卫星简介
星链(Starlink)计划是由太空探索技术公司(SpaceX)提出的一个巨型低轨卫星互联网星座项目,计划在2019年至2024年间在太空搭建由约1.2万颗卫星组成的“星链”网络,其中1584颗将部署在地球上空550千米处的近地轨道,并从2020年开始工作。该卫星仍在工作。
2D轨道图
3D轨道图
轨道高度分析图
轨道倾角分析图
轨道综合分析图
查看轨道综合分析图